DW2150 Weather Reports


time (UTC)temp
F
wind
direction
speed
knots
gust
knots
rain 1hr
in
rain 24hr
in
rain mn
in
humidity
%
barometer
mb
20220524031211 76 47 1.7 9.6 0.00 0.00 0.00 87 1013.5
20220524030709 76 38 2.6 9.6 0.00 0.00 0.00 86 1013.2
20220524030208 76 27 1.7 9.6 0.00 0.00 0.00 86 1013.2
20220524025708 76 73 1.7 9.6 0.00 0.00 0.00 86 1013.5
20220524025207 76 53 2.6 7.0 0.00 0.00 0.00 86 1013.5
20220524024706 76 44 0.9 7.0 0.00 0.00 0.00 86 1013.5
20220524024205 76 56 2.6 7.0 0.00 0.00 0.00 86 1013.2
20220524023704 77 21 2.6 7.0 0.00 0.00 0.00 86 1013.2
20220524023203 77 52 1.7 7.0 0.00 0.00 0.00 85 1013.2
20220524022702 77 26 1.7 7.0 0.00 0.00 0.00 85 1013.2
20220524022204 77 44 2.6 7.0 0.00 0.00 0.00 85 1013.2
20220524021700 77 70 3.5 7.0 0.00 0.00 0.00 86 1013.2
20220524021200 76 68 2.6 7.0 0.00 0.00 0.00 86 1013.2
20220524020659 77 66 2.6 7.0 0.00 0.00 0.00 86 1013.2
20220524020158 76 58 1.7 7.0 0.00 0.00 0.00 86 1013.2
20220524015657 76 37 2.6 7.0 0.00 0.00 0.00 86 1013.2
20220524015157 76 58 2.6 7.0 0.00 0.00 0.00 86 1013.2
20220524014656 76 56 0.9 6.1 0.00 0.00 0.00 86 1013.2
20220524014155 76 61 3.5 6.1 0.00 0.00 0.00 86 1013.2
20220524013654 76 49 1.7 6.1 0.00 0.00 0.00 86 1013.2
20220524013153 76 22 0.9 6.1 0.00 0.00 0.00 86 1013.2
20220524012652 76 11 0.9 4.3 0.00 0.00 0.00 86 1012.9
20220524012152 76 23 1.7 3.5 0.00 0.00 0.00 86 1013.2
20220524011651 76 45 1.7 3.5 0.00 0.00 0.00 85 1013.2
20220524011150 77 59 0.9 4.3 0.00 0.00 0.00 85 1012.9
20220524010650 77 80 1.7 6.1 0.00 0.00 0.00 84 1012.9
20220524010149 77 71 2.6 6.1 0.00 0.00 0.00 84 1012.9
20220524005648 77 64 1.7 6.1 0.00 0.00 0.00 83 1012.9
20220524005147 77 38 2.6 6.1 0.00 0.00 0.00 83 1012.9
20220524004646 77 70 0.9 6.1 0.00 0.00 0.00 83 1012.9
20220524004145 77 39 2.6 6.1 0.00 0.00 0.00 82 1012.9
20220524003645 78 38 1.7 4.3 0.00 0.00 0.00 82 1012.5
20220524003144 78 49 1.7 7.0 0.00 0.00 0.00 82 1012.5
20220524002644 78 101 1.7 7.0 0.00 0.00 0.00 82 1012.5
20220524002143 78 62 1.7 7.8 0.00 0.00 0.00 81 1012.2
20220524001642 79 58 3.5 7.8 0.00 0.00 0.00 80 1012.5
20220524001141 79 67 3.5 7.8 0.00 0.00 0.00 80 1012.5
20220524000641 79 93 0.9 7.8 0.00 0.00 0.00 80 1012.5
20220524000140 79 29 3.5 8.7 0.00 0.00 0.00 79 1012.5
20220523235640 79 57 2.6 8.7 0.00 0.00 0.00 78 1012.5
20220523235139 80 60 2.6 8.7 0.00 0.00 0.00 78 1012.9
20220523234638 80 41 2.6 7.8 0.00 0.00 0.00 78 1012.9
20220523234137 80 73 1.7 7.0 0.00 0.00 0.00 78 1012.9
20220523233636 80 60 2.6 7.8 0.00 0.00 0.00 77 1012.9
20220523233136 80 26 2.6 7.8 0.00 0.00 0.00 77 1013.2
20220523232635 81 48 2.6 7.8 0.00 0.00 0.00 76 1013.2
20220523232134 81 46 4.3 7.8 0.00 0.00 0.00 76 1013.2
20220523231633 81 41 3.5 6.1 0.00 0.00 0.00 75 1013.2
20220523231132 81 47 1.7 7.8 0.00 0.00 0.00 76 1013.2
20220523230631 81 47 2.6 7.8 0.00 0.00 0.00 75 1013.2
20220523230131 81 42 2.6 7.8 0.00 0.00 0.00 75 1013.2
20220523225630 82 51 2.6 7.0 0.00 0.00 0.00 75 1013.2
20220523225130 82 41 2.6 7.8 0.00 0.00 0.00 75 1013.5
20220523224629 82 72 1.7 7.8 0.00 0.00 0.00 75 1013.5
20220523224128 82 61 2.6 6.1 0.00 0.00 0.00 75 1013.5
20220523223627 82 55 2.6 6.1 0.00 0.00 0.00 74 1013.5
20220523223127 82 45 2.6 7.8 0.00 0.00 0.00 74 1013.2
20220523222626 82 51 1.7 7.8 0.00 0.00 0.00 75 1013.2
20220523222125 83 39 2.6 7.8 0.00 0.00 0.00 74 1013.2
20220523221625 83 40 2.6 7.8 0.00 0.00 0.00 73 1013.2
20220523221124 82 41 1.7 7.8 0.00 0.00 0.00 75 1013.2
20220523220623 82 62 2.6 8.7 0.00 0.00 0.00 75 1013.2
20220523220122 82 21 1.7 8.7 0.00 0.00 0.00 75 1013.2
20220523215621 82 67 2.6 12.2 0.00 0.00 0.00 75 1013.2
20220523215120 82 43 2.6 12.2 0.00 0.00 0.00 75 1013.2
20220523214620 82 49 4.3 12.2 0.00 0.00 0.00 74 1013.2
20220523214119 82 36 3.5 12.2 0.00 0.00 0.00 74 1013.2
20220523213618 82 26 4.3 9.6 0.00 0.00 0.00 75 1013.2
20220523213117 82 50 4.3 10.4 0.00 0.00 0.00 75 1013.2
20220523212617 82 64 4.3 10.4 0.00 0.00 0.00 74 1013.2
20220523212116 83 53 3.5 8.7 0.00 0.00 0.00 74 1013.2
20220523211615 83 62 4.3 9.6 0.00 0.00 0.00 74 1013.5
20220523211114 83 40 4.3 9.6 0.00 0.00 0.00 74 1013.2
20220523210614 83 27 1.7 11.3 0.00 0.00 0.00 75 1013.2
20220523210113 83 35 3.5 11.3 0.00 0.00 0.00 75 1013.2
20220523205612 83 60 4.3 11.3 0.00 0.00 0.00 74 1013.2
20220523205112 83 67 1.7 11.3 0.00 0.00 0.00 76 1013.2
20220523204611 83 52 4.3 10.4 0.00 0.00 0.00 75 1013.5
20220523204110 83 47 4.3 10.4 0.00 0.00 0.00 74 1013.5
20220523203609 83 49 3.5 11.3 0.00 0.00 0.00 75 1013.5
20220523203108 83 52 4.3 11.3 0.00 0.00 0.00 74 1013.5
20220523202607 83 58 2.6 11.3 0.00 0.00 0.00 76 1013.9
20220523202106 83 47 3.5 11.3 0.00 0.00 0.00 74 1013.9
20220523201605 83 65 2.6 11.3 0.00 0.00 0.00 74 1013.9
20220523201104 83 56 5.2 11.3 0.00 0.00 0.00 73 1013.9
20220523200604 83 61 1.7 7.0 0.00 0.00 0.00 75 1014.2
20220523200103 83 35 2.6 11.3 0.00 0.00 0.00 73 1014.2
20220523195602 84 53 3.5 11.3 0.00 0.00 0.00 72 1014.2
20220523195101 83 44 3.5 12.2 0.00 0.00 0.00 72 1014.2
20220523194601 83 40 4.3 12.2 0.00 0.00 0.00 73 1014.2
20220523194100 83 47 4.3 10.4 0.00 0.00 0.00 72 1014.6
20220523193558 84 40 4.3 9.6 0.00 0.00 0.00 71 1014.6
20220523193058 83 60 3.5 9.6 0.00 0.00 0.00 74 1014.6
20220523192557 83 41 2.6 9.6 0.00 0.00 0.00 75 1014.9
20220523192056 83 43 3.5 9.6 0.00 0.00 0.00 74 1014.9
20220523191556 83 55 1.7 8.7 0.00 0.00 0.00 76 1015.2
20220523191055 84 43 5.2 8.7 0.00 0.00 0.00 73 1015.2
20220523190554 84 61 4.3 8.7 0.00 0.00 0.00 73 1015.2
20220523190054 84 58 3.5 8.7 0.00 0.00 0.00 73 1015.2
20220523185553 84 43 2.6 8.7 0.00 0.00 0.00 74 1015.2
20220523185051 84 44 2.6 8.7 0.00 0.00 0.00 74 1015.6
20220523184551 84 45 3.5 8.7 0.00 0.00 0.00 73 1015.6
20220523184050 84 41 2.6 7.8 0.00 0.00 0.00 75 1015.6
20220523183549 84 53 3.5 7.8 0.00 0.00 0.00 75 1015.6
20220523183049 84 41 2.6 9.6 0.00 0.00 0.00 74 1015.9
20220523182548 84 42 2.6 9.6 0.00 0.00 0.00 75 1015.9
20220523182047 84 51 2.6 9.6 0.00 0.00 0.00 73 1015.6
20220523181546 84 55 3.5 9.6 0.00 0.00 0.00 73 1015.9
20220523181046 84 58 4.3 8.7 0.00 0.00 0.00 72 1015.9
20220523180544 84 30 1.7 7.0 0.00 0.00 0.00 75 1015.9
20220523180044 83 48 3.5 7.0 0.00 0.00 0.00 73 1015.9
20220523175543 83 23 1.7 6.1 0.00 0.00 0.00 75 1015.9
20220523175042 83 52 3.5 6.1 0.00 0.00 0.00 74 1015.9
20220523174542 83 66 2.6 7.8 0.00 0.00 0.00 74 1015.9
20220523174040 82 22 2.6 7.8 0.00 0.00 0.00 77 1015.9
20220523173540 82 64 1.7 7.8 0.00 0.00 0.00 76 1015.9
20220523173039 82 62 1.7 7.8 0.00 0.00 0.00 76 1016.3
20220523172538 82 43 2.6 8.7 0.00 0.00 0.00 76 1016.3
20220523172036 81 9 0.9 8.7 0.00 0.00 0.00 79 1016.6
20220523171535 81 47 2.6 8.7 0.00 0.00 0.00 77 1016.6
20220523171034 81 73 2.6 8.7 0.00 0.00 0.00 78 1016.6
20220523170534 81 54 2.6 7.8 0.00 0.00 0.00 77 1016.6
20220523170033 81 60 3.5 7.0 0.00 0.00 0.00 77 1016.6
20220523165532 81 31 2.6 7.0 0.00 0.00 0.00 78 1016.6
20220523165031 80 43 2.6 7.0 0.00 0.00 0.00 78 1016.9
20220523164531 80 108 2.6 7.0 0.00 0.00 0.00 79 1016.9
20220523164030 80 29 2.6 6.1 0.00 0.00 0.00 78 1017.3
20220523163529 80 245 1.7 7.8 0.00 0.00 0.00 80 1017.3
20220523163028 80 49 3.5 7.8 0.00 0.00 0.00 79 1017.6
20220523162527 79 70 2.6 7.8 0.00 0.00 0.00 79 1017.6
20220523162026 79 62 2.6 7.8 0.00 0.00 0.00 82 1017.6
20220523161525 78 46 1.7 7.0 0.00 0.00 0.00 82 1017.6
20220523161024 78 16 2.6 7.0 0.00 0.00 0.00 81 1017.9
20220523160524 78 55 2.6 7.0 0.00 0.00 0.00 82 1017.9
20220523160023 77 45 2.6 7.0 0.00 0.00 0.00 83 1017.9
20220523155522 77 51 2.6 7.0 0.00 0.00 0.00 82 1017.9
20220523155021 77 41 3.5 7.0 0.00 0.00 0.00 83 1017.9
20220523154521 76 34 1.7 7.0 0.00 0.00 0.00 84 1017.9
20220523154020 75 65 3.5 7.0 0.00 0.00 0.00 85 1018.3
20220523153519 75 27 2.6 9.6 0.00 0.00 0.00 86 1018.3
20220523153018 74 59 2.6 9.6 0.00 0.00 0.00 87 1018.3
20220523152517 73 32 1.7 9.6 0.00 0.00 0.00 88 1018.6
20220523152017 73 64 2.6 9.6 0.00 0.00 0.00 89 1018.6
20220523151511 73 56 2.6 7.8 0.00 0.00 0.00 89 1018.6
20220523151011 72 37 1.7 7.8 0.00 0.00 0.00 90 1018.6
20220523150510 72 45 2.6 7.8 0.00 0.00 0.00 90 1018.6
20220523150010 72 13 1.7 7.8 0.00 0.00 0.00 90 1018.6
20220523145509 72 29 1.7 7.0 0.00 0.00 0.00 91 1018.6
20220523145008 72 262 1.7 6.1 0.00 0.00 0.00 92 1018.6
20220523144507 72 31 2.6 7.0 0.00 0.00 0.00 91 1018.6
20220523144007 72 42 1.7 7.0 0.00 0.00 0.00 92 1018.6
20220523143506 72 34 2.6 7.0 0.00 0.00 0.00 91 1018.6
20220523143005 72 20 2.6 7.0 0.00 0.00 0.00 92 1018.6
20220523142504 71 30 0.9 7.0 0.00 0.00 0.00 92 1018.6
20220523142004 71 60 1.7 9.6 0.00 0.00 0.00 92 1018.6
20220523141503 71 33 2.6 9.6 0.00 0.00 0.00 92 1018.6
20220523141002 71 50 1.7 10.4 0.00 0.00 0.00 92 1018.6
20220523140501 71 52 3.5 10.4 0.00 0.00 0.00 92 1018.6
20220523140001 71 44 2.6 10.4 0.00 0.00 0.00 92 1018.3
20220523135500 71 29 2.6 10.4 0.00 0.00 0.00 92 1018.3
20220523134959 71 56 3.5 7.0 0.00 0.00 0.00 92 1018.3
20220523134458 71 50 2.6 7.8 0.00 0.00 0.00 91 1018.3
20220523133957 71 43 2.6 7.8 0.00 0.00 0.00 92 1018.3
20220523133456 71 69 1.7 7.8 0.00 0.00 0.00 92 1018.3
20220523132955 71 35 2.6 7.8 0.00 0.00 0.00 91 1018.3
20220523132454 72 46 2.6 7.8 0.00 0.00 0.00 91 1017.9
20220523131953 72 67 1.7 7.8 0.00 0.01 0.00 91 1017.9
20220523131453 72 36 3.5 9.6 0.00 0.01 0.00 91 1017.9
20220523130952 72 16 2.6 9.6 0.00 0.02 0.00 91 1017.6
20220523130451 72 47 1.7 9.6 0.00 0.03 0.00 91 1017.6
20220523125951 72 39 4.3 8.7 0.00 0.05 0.00 91 1017.6
20220523125450 72 27 2.6 7.8 0.00 0.07 0.00 91 1017.6
20220523124949 72 49 2.6 7.0 0.00 0.10 0.00 92 1017.6
20220523124448 72 25 3.5 7.0 0.00 0.13 0.00 91 1017.6
20220523123948 72 49 1.7 5.2 0.00 0.16 0.00 92 1017.6
20220523123447 72 43 1.7 5.2 0.00 0.18 0.00 92 1017.6
20220523122946 72 68 1.7 5.2 0.00 0.21 0.00 92 1017.6
20220523122445 72 43 1.7 5.2 0.00 0.23 0.00 92 1017.6
20220523121944 72 34 0.9 6.1 0.00 0.25 0.00 92 1017.6
20220523121444 72 31 2.6 6.1 0.00 0.28 0.00 92 1017.3
20220523120943 72 33 1.7 6.1 0.00 0.29 0.00 92 1017.3
20220523120442 72 32 3.5 6.1 0.00 0.31 0.00 92 1017.3
20220523115941 72 52 1.7 5.2 0.00 0.33 0.00 92 1016.9
20220523115440 72 50 0.9 6.1 0.00 0.34 0.00 92 1016.9
20220523114939 72 34 1.7 7.0 0.00 0.35 0.00 92 1016.9
20220523114439 72 23 1.7 7.8 0.00 0.36 0.00 92 1016.6
20220523113938 72 29 2.6 7.8 0.00 0.37 0.00 92 1016.6
20220523113437 72 43 3.5 7.8 0.00 0.38 0.00 91 1016.3
20220523112936 72 43 2.6 7.0 0.00 0.39 0.00 91 1016.3
20220523112435 73 47 3.5 6.1 0.00 0.41 0.00 91 1016.3
20220523111935 73 33 2.6 6.1 0.00 0.44 0.00 91 1016.3
20220523111433 73 47 1.7 6.1 0.00 0.49 0.00 91 1016.3
20220523110933 73 62 1.7 6.1 0.00 0.56 0.00 91 1016.3
20220523110432 72 46 2.6 6.1 0.00 0.65 0.00 91 1016.3
20220523105931 72 49 1.7 6.1 0.00 0.67 0.00 91 1015.9
20220523105430 72 50 3.5 6.1 0.00 0.70 0.00 92 1015.9
20220523104929 72 30 2.6 6.1 0.00 0.71 0.00 92 1015.9
20220523104429 72 52 3.5 6.1 0.00 0.72 0.00 92 1015.9
20220523103928 72 51 1.7 5.2 0.00 0.73 0.00 92 1015.9
20220523103427 72 34 1.7 5.2 0.00 0.75 0.00 92 1015.9
20220523102927 72 42 1.7 5.2 0.00 0.76 0.00 92 1015.9
20220523102426 72 39 1.7 5.2 0.00 0.77 0.00 92 1015.9
20220523101925 72 25 0.9 5.2 0.00 0.77 0.00 93 1015.9
20220523101424 72 46 0.0 5.2 0.00 0.77 0.00 93 1015.9
20220523100923 72 20 1.7 5.2 0.00 0.77 0.00 92 1015.9
20220523100423 72 12 2.6 5.2 0.00 0.78 0.00 92 1015.9
20220523095922 72 53 1.7 4.3 0.00 0.78 0.00 92 1015.9
20220523095421 72 27 2.6 6.1 0.00 0.78 0.00 92 1015.9
20220523094919 72 38 2.6 6.1 0.00 0.78 0.00 92 1015.9
20220523094419 72 2 1.7 6.1 0.00 0.79 0.00 92 1015.9
20220523093918 72 60 1.7 6.1 0.00 0.81 0.00 92 1015.9
20220523093417 72 26 1.7 6.1 0.00 0.81 0.00 92 1015.6
20220523092916 72 48 1.7 6.1 0.00 0.83 0.00 92 1015.6
20220523092415 72 39 1.7 5.2 0.00 0.85 0.00 92 1015.6
20220523091914 72 30 0.9 5.2 0.00 0.85 0.00 92 1015.9
20220523091413 72 37 1.7 6.1 0.00 0.85 0.00 91 1015.6
20220523090912 73 353 1.7 7.8 0.00 0.85 0.00 91 1015.6
20220523090412 73 40 2.6 8.7 0.00 0.85 0.00 91 1015.6
20220523085911 73 36 2.6 8.7 0.00 0.85 0.00 91 1015.6
20220523085411 73 55 1.7 9.6 0.00 0.85 0.00 91 1015.2
20220523084910 73 52 3.5 9.6 0.00 0.85 0.00 90 1015.6
20220523084409 73 53 4.3 9.6 0.00 0.85 0.00 90 1015.9
20220523083909 73 47 3.5 7.8 0.00 0.85 0.00 90 1015.9
20220523083408 73 33 2.6 7.8 0.00 0.85 0.00 90 1015.9
20220523082907 73 41 1.7 7.8 0.00 0.85 0.00 90 1015.9
20220523082406 73 54 1.7 7.0 0.00 0.85 0.00 90 1015.9
20220523081906 73 40 2.6 7.0 0.00 0.85 0.00 91 1016.3
20220523081405 73 51 2.6 7.0 0.00 0.85 0.00 91 1016.3
20220523080903 73 37 2.6 7.0 0.00 0.85 0.00 91 1016.3
20220523080402 73 54 1.7 5.2 0.00 0.85 0.00 91 1016.6
20220523075901 73 44 1.7 4.3 0.00 0.85 0.00 91 1016.6
20220523075401 73 41 1.7 4.3 0.00 0.85 0.00 91 1016.6
20220523074900 73 37 1.7 5.2 0.00 0.85 0.00 91 1016.6
20220523074359 73 60 1.7 5.2 0.00 0.85 0.00 91 1016.6
20220523073858 74 27 1.7 5.2 0.00 0.85 0.00 91 1016.6
20220523073357 74 32 1.7 4.3 0.00 0.85 0.00 90 1016.6
20220523072857 74 39 1.7 4.3 0.00 0.85 0.00 90 1016.6
20220523072356 74 15 1.7 4.3 0.00 0.85 0.00 90 1016.6
20220523071855 74 31 0.9 3.5 0.00 0.85 0.00 89 1016.9
20220523071354 74 49 0.0 4.3 0.00 0.85 0.00 89 1016.9
20220523070853 74 56 0.9 4.3 0.00 0.85 0.00 89 1016.9
20220523070352 74 40 1.7 6.1 0.00 0.85 0.00 89 1016.9
20220523065852 74 42 1.7 6.1 0.00 0.85 0.00 89 1017.3
20220523065351 74 75 0.9 6.1 0.00 0.85 0.00 89 1017.3
20220523064850 75 63 0.9 6.1 0.00 0.85 0.00 88 1017.3
20220523064349 75 11 0.9 5.2 0.00 0.85 0.00 88 1017.3
20220523063849 75 29 1.7 6.1 0.00 0.85 0.00 88 1017.3
20220523063348 75 52 1.7 7.0 0.00 0.85 0.00 88 1017.3
20220523062847 75 66 2.6 7.0 0.00 0.85 0.00 88 1017.3
20220523062346 75 49 2.6 7.0 0.00 0.85 0.00 88 1017.3
20220523061845 75 29 3.5 7.0 0.00 0.85 0.00 88 1017.6
20220523061344 75 54 1.7 7.0 0.00 0.85 0.00 88 1017.6
20220523060844 75 49 2.6 7.0 0.00 0.85 0.00 88 1017.6
20220523060343 75 35 2.6 7.8 0.00 0.85 0.00 87 1017.6
20220523055842 75 35 2.6 7.8 0.00 0.85 0.00 87 1017.6
20220523055341 75 36 3.5 8.7 0.00 0.85 0.00 87 1017.9
20220523054841 75 31 3.5 8.7 0.00 0.85 0.00 87 1017.9
20220523054340 76 46 2.6 8.7 0.00 0.85 0.00 88 1017.9
20220523053839 76 44 2.6 8.7 0.00 0.85 0.00 88 1017.9
20220523053339 76 46 1.7 7.0 0.00 0.85 0.00 87 1017.9
20220523052838 76 33 1.7 7.0 0.00 0.85 0.00 88 1017.9
20220523052337 76 26 2.6 7.0 0.00 0.85 0.00 88 1017.9
20220523051837 76 35 3.5 7.0 0.00 0.85 0.00 87 1018.3
20220523051335 76 35 1.7 7.0 0.00 0.85 0.00 87 1018.3
20220523050834 76 60 2.6 7.0 0.00 0.85 0.00 87 1018.3
20220523050333 76 49 2.6 7.0 0.00 0.85 0.00 87 1018.3
20220523045832 76 49 0.9 5.2 0.00 0.85 0.85 86 1018.3
20220523045331 77 26 1.7 5.2 0.00 0.85 0.85 86 1018.3
20220523044830 77 24 2.6 7.8 0.00 0.85 0.85 86 1018.3
20220523044330 77 59 2.6 7.8 0.00 0.85 0.85 85 1018.3
20220523043829 77 32 2.6 7.8 0.00 0.85 0.85 84 1018.3
20220523043328 77 44 2.6 7.8 0.00 0.85 0.85 84 1018.3
20220523042827 77 39 2.6 7.0 0.00 0.85 0.85 84 1018.3
20220523042326 77 54 1.7 7.0 0.00 0.85 0.85 84 1018.3
20220523041825 77 59 2.6 7.0 0.00 0.85 0.85 84 1018.3
20220523041324 77 34 0.9 6.1 0.00 0.85 0.85 83 1018.3
20220523040823 77 40 1.7 8.7 0.00 0.85 0.85 83 1017.9
20220523040323 77 39 1.7 8.7 0.00 0.85 0.85 83 1017.9
20220523035822 77 60 1.7 8.7 0.00 0.85 0.85 83 1017.9
20220523035321 77 36 2.6 8.7 0.00 0.85 0.85 83 1017.9
20220523034820 77 69 2.6 6.1 0.00 0.85 0.85 83 1017.6
20220523034319 77 48 2.6 6.1 0.00 0.85 0.85 82 1017.6
20220523033818 77 53 2.6 6.1 0.00 0.85 0.85 82 1017.6
20220523033318 77 24 2.6 6.1 0.00 0.85 0.85 83 1017.6
20220523032817 77 44 0.9 5.2 0.00 0.85 0.85 83 1017.6
20220523032316 77 37 1.7 5.2 0.00 0.85 0.85 83 1017.6
20220523031815 77 350 1.7 5.2 0.00 0.85 0.85 82 1017.6